Wind_Speed
10 9 9 9 9 9 8 8 7 6 6 5 5 5 5 6 6 7 8 9 10 11 11 12 13 14 15 16 17 18 18 19 19 19 19 19 20 20 20 20 20 19 18 18
9 9 9 8 8 8 8 7 7 6 6 5 5 5 6 7 8 9 10 11 12 12 13 14 15 16 17 18 19 20 20 21 21 21 22 22 21 22 22 22 21 21 20 20
8 8 8 8 8 8 8 8 7 7 7 7 7 7 8 9 9 10 12 13 14 15 16 17 18 19 20 20 21 22 23 23 24 24 24 25 24 24 24 24 24 24 23 23
9 9 9 8 9 8 8 8 9 9 8 8 9 9 10 11 12 13 14 14 16 17 18 19 20 21 22 23 24 25 26 26 27 27 27 28 28 28 27 27 26 26 26 26
10 10 9 10 10 10 10 10 10 10 10 11 11 11 12 13 14 15 16 17 18 19 20 22 23 24 25 26 27 28 29 29 30 30 31 31 31 31 30 30 30 29 29 29
12 12 12 12 12 12 12 12 12 12 13 13 13 14 15 16 17 18 19 20 21 22 23 24 26 27 28 30 31 32 32 33 33 34 34 34 34 34 34 33 33 33 32 32
14 14 14 14 14 14 15 14 15 15 15 15 16 17 18 19 20 21 22 23 24 25 27 28 30 31 32 33 34 35 36 37 37 38 38 38 38 38 38 37 37 36 36 36
17 17 17 18 17 17 18 18 18 18 18 19 20 20 21 22 24 25 26 27 28 30 31 32 34 35 36 37 38 39 40 41 41 42 42 43 43 42 42 41 41 40 40 39
21 21 21 21 21 21 21 21 21 21 22 23 23 24 25 26 27 28 30 31 32 34 35 36 37 38 40 41 42 43 44 45 46 46 47 47 47 47 47 46 45 45 44 43
24 24 24 24 24 24 24 24 24 25 25 26 27 28 29 29 31 32 33 34 36 37 38 40 41 42 44 45 46 47 48 49 49 50 50 50 50 50 50 49 49 48 48 48
29 28 28 28 28 28 28 28 28 28 29 30 30 31 32 33 34 35 36 38 39 40 42 43 44 46 47 49 50 51 52 53 53 52 52 53 53 53 52 51 51 51 51 51
33 32 32 32 32 32 32 31 31 32 32 33 33 34 34 35 36 38 39 40 41 43 44 46 47 49 50 52 53 54 54 54 55 55 55 55 55 54 53 54 53 54 53 53
36 36 35 35 35 35 35 35 34 34 35 35 35 36 37 38 39 40 42 43 44 46 47 49 50 51 53 54 55 56 57 57 57 57 57 58 57 56 54 54 54 54 54 54
38 38 37 37 37 37 37 37 37 37 37 37 38 39 40 41 42 43 44 46 47 48 49 51 53 54 55 57 58 59 59 59 59 59 59 59 59 57 55 54 53 52 53 53
40 40 40 39 39 39 39 39 39 39 39 40 40 41 42 44 45 46 47 48 49 51 52 54 56 57 59 60 61 62 61 61 61 61 61 61 60 58 56 54 53 52 51 52
42 41 41 41 41 41 41 41 41 41 42 42 43 44 45 46 47 48 49 51 53 54 56 57 59 60 62 63 64 64 63 63 63 63 62 61 59 58 56 54 53 52 51 51
44 43 43 43 43 43 43 43 43 43 44 45 46 47 48 49 50 51 52 54 56 57 59 60 61 63 64 66 66 65 65 64 63 63 62 60 59 57 56 54 52 51 51 50
45 45 45 45 44 44 45 45 45 46 47 48 49 50 51 52 53 54 56 57 59 60 61 62 64 65 66 67 67 66 65 64 64 63 62 60 58 57 55 53 52 51 51 50
46 46 46 46 46 46 47 47 48 50 50 51 52 53 54 55 56 57 58 60 61 62 63 64 66 66 66 67 67 66 65 65 64 63 62 60 58 56 54 53 51 50 49 49
49 49 49 49 49 49 50 50 51 52 52 53 54 55 56 57 58 59 60 61 62 63 64 66 66 66 66 67 67 66 65 64 64 62 60 58 56 54 51 50 48 47 47 47
50 50 50 51 51 52 53 53 53 54 54 55 56 57 58 58 60 61 62 62 63 64 65 66 66 66 66 66 66 65 64 63 62 60 57 55 52 50 48 47 46 45 44 45
52 52 52 53 54 54 54 54 55 55 56 56 57 58 59 60 61 62 63 63 64 64 65 65 65 65 65 65 64 63 62 60 58 56 53 51 50 48 46 45 44 43 43 43
54 55 55 55 56 56 56 56 57 58 58 59 59 60 61 62 63 64 63 63 63 63 63 63 63 63 63 63 62 60 58 56 54 52 51 49 48 46 45 44 43 43 42 42
57 57 58 58 58 58 58 59 59 59 60 61 62 62 63 64 63 63 62 62 61 61 61 61 60 61 61 61 59 57 55 53 52 50 49 48 46 45 44 43 42 41 40 39
61 61 60 60 60 60 60 61 61 61 62 63 63 63 63 63 62 61 60 60 59 59 59 59 59 60 59 58 56 54 52 51 50 48 47 46 44 44 43 42 40 38 37 36
62 62 62 62 62 62 62 62 62 63 63 63 62 61 61 61 59 58 58 58 57 57 57 58 57 57 56 54 53 51 49 48 47 46 45 44 44 43 41 39 37 35 33 33
62 62 62 62 62 62 62 62 62 62 62 60 59 59 58 58 57 56 56 55 54 54 55 55 54 53 52 51 49 48 47 46 45 44 43 43 42 40 38 36 34 32 31 31
Wind_Direction
183 186 189 188 188 190 192 196 206 218 229 241 253 265 278 292 303 313 319 322 322 322 322 322 322 322 320 318 319 319 319 318 316 314 312 311 310 309 307 306 305 304 303 301
191 193 194 195 195 196 200 208 218 228 238 252 262 272 287 298 306 312 316 318 319 319 319 320 320 320 319 318 316 315 314 314 313 311 309 308 306 305 304 303 302 300 297 295
203 205 206 208 211 213 217 224 232 240 250 262 271 280 290 297 303 307 310 312 313 314 314 313 314 315 315 314 314 313 312 310 309 308 307 305 303 301 300 299 298 296 294 291
214 219 223 220 225 227 232 238 244 251 261 270 277 283 290 296 299 302 304 305 306 307 308 309 309 311 311 311 311 311 310 309 308 306 304 302 300 299 297 295 294 292 290 289
227 231 231 236 239 243 248 250 256 261 269 275 280 284 289 293 296 299 301 302 303 304 306 306 307 308 309 308 308 307 307 306 305 304 303 301 299 296 295 293 291 289 287 285
235 240 243 246 250 253 257 259 265 268 272 277 281 284 289 291 295 297 299 300 301 302 303 304 305 305 306 306 307 307 305 304 303 302 301 300 298 296 294 291 289 287 284 282
244 247 250 253 256 259 262 267 268 271 274 278 281 285 289 291 294 296 298 299 300 300 301 303 304 305 305 305 306 306 304 302 301 300 299 297 296 295 293 290 287 284 282 280
250 252 255 258 261 263 265 268 271 273 275 278 281 285 288 291 293 295 296 298 298 299 300 302 303 304 304 304 305 304 303 301 299 298 297 296 294 292 291 289 286 282 279 277
254 257 259 261 263 265 267 269 271 274 276 279 281 284 287 290 292 294 295 297 298 299 301 301 302 303 303 304 304 303 301 300 299 297 296 295 293 291 289 287 284 282 279 275
256 258 260 262 264 266 268 270 273 275 277 279 281 284 286 288 291 293 294 296 298 299 300 301 302 302 303 303 304 303 302 300 299 298 296 294 293 290 288 285 282 279 277 274
258 260 262 264 266 268 269 271 273 275 277 279 282 284 287 289 291 293 295 296 297 298 300 301 302 302 303 304 304 303 302 302 300 298 296 295 293 291 288 284 281 278 275 272
259 261 263 265 267 269 270 272 274 276 278 280 282 285 287 289 291 293 294 296 297 298 300 301 302 303 304 304 304 304 303 302 301 299 298 296 294 291 288 284 280 277 273 270
261 262 264 266 268 270 271 273 275 277 279 281 283 285 288 290 292 293 295 296 298 299 300 301 302 303 304 304 305 304 304 303 302 301 299 297 295 293 290 285 281 277 273 269
262 264 265 267 269 270 272 273 276 278 280 282 284 286 288 291 293 294 295 296 298 299 300 301 302 303 304 304 305 305 304 303 302 301 300 298 296 294 290 286 281 277 273 268
263 264 266 268 269 271 272 274 276 278 280 282 284 287 289 291 293 294 296 297 299 300 301 301 302 303 304 304 304 304 303 302 302 301 300 298 296 293 291 287 282 278 273 268
264 266 268 269 270 271 273 275 277 279 280 283 285 287 290 292 294 295 296 298 299 300 301 301 302 303 303 304 304 304 303 302 301 300 300 299 296 293 291 288 283 279 274 269
264 266 268 270 271 273 274 276 278 280 282 284 286 288 290 292 294 295 297 298 299 300 300 301 302 302 303 303 303 303 302 301 300 300 300 299 296 294 292 288 283 278 274 270
265 267 268 270 272 274 275 277 279 281 283 286 287 289 291 292 294 296 297 298 298 299 300 300 301 302 302 302 303 303 302 301 301 300 300 299 296 294 292 289 283 278 274 270
266 267 269 271 273 274 276 278 280 283 285 286 288 289 291 293 294 295 296 297 298 298 299 300 301 301 301 302 302 302 301 301 300 300 300 299 297 295 293 290 285 279 275 270
268 269 271 272 273 275 277 279 282 284 285 287 288 290 291 292 293 294 296 297 297 298 299 299 300 301 301 301 301 300 300 300 300 300 299 298 297 295 293 290 285 280 275 270
271 272 273 274 276 277 279 281 282 284 286 287 288 289 291 292 293 294 295 296 297 298 298 299 299 300 300 300 300 300 300 300 300 299 299 298 296 294 292 290 286 281 276 272
272 273 274 276 277 279 280 282 283 284 286 287 288 290 291 292 293 293 294 295 296 297 297 298 298 299 299 300 300 300 300 300 300 300 298 297 296 294 292 290 287 282 277 273
272 273 275 277 278 279 281 282 283 285 286 287 288 290 290 291 292 293 293 294 295 296 297 297 298 298 299 300 300 300 300 300 300 299 298 297 296 294 292 290 287 283 277 272
273 274 276 277 278 280 281 282 283 284 286 287 288 289 290 291 291 292 293 293 294 295 296 296 296 297 298 299 300 300 300 299 299 298 298 297 297 295 292 291 288 283 278 272
274 275 276 277 278 279 280 281 283 284 286 287 288 288 289 290 291 292 292 293 293 294 294 295 296 297 299 300 301 300 298 298 298 298 298 298 297 295 292 290 288 285 279 272
274 275 276 277 278 279 280 281 282 284 285 286 287 287 288 289 289 290 291 292 292 293 294 295 296 298 299 300 300 299 298 298 298 298 298 298 296 295 292 289 286 283 280 273
273 274 276 277 277 278 279 280 281 283 284 284 285 285 286 287 288 290 291 291 292 293 294 296 297 298 300 300 299 299 299 299 299 298 298 298 296 293 291 289 285 282 280 273
Height
5834 5835 5836 5837 5838 5838 5839 5840 5841 5841 5841 5841 5841 5841 5840 5840 5840 5839 5838 5837 5836 5835 5834 5833 5831 5829 5827 5825 5824 5822 5820 5817 5815 5813 5811 5809 5808 5806 5804 5802 5800 5798 5797 5795
5833 5834 5834 5835 5836 5837 5837 5838 5838 5838 5839 5838 5838 5838 5838 5838 5837 5836 5836 5835 5833 5832 5831 5830 5828 5826 5824 5822 5820 5818 5816 5814 5812 5809 5807 5805 5803 5801 5800 5798 5796 5794 5793 5791
5832 5832 5833 5834 5835 5835 5835 5835 5836 5836 5837 5836 5836 5835 5835 5835 5834 5833 5832 5831 5830 5829 5827 5826 5824 5822 5820 5818 5816 5814 5812 5809 5807 5805 5803 5800 5798 5796 5794 5793 5791 5789 5788 5786
5830 5831 5831 5834 5832 5832 5832 5833 5833 5833 5833 5833 5833 5832 5832 5831 5830 5829 5828 5827 5826 5825 5823 5821 5819 5817 5815 5813 5811 5808 5806 5804 5801 5799 5797 5795 5792 5790 5788 5787 5785 5784 5782 5781
5827 5828 5829 5829 5829 5829 5829 5829 5830 5829 5829 5829 5829 5828 5828 5827 5826 5825 5824 5823 5821 5820 5818 5816 5814 5812 5809 5807 5805 5802 5800 5797 5795 5792 5790 5787 5785 5783 5781 5780 5778 5776 5775 5774
5824 5824 5825 5827 5826 5825 5826 5826 5826 5825 5825 5825 5824 5824 5824 5822 5821 5820 5819 5817 5816 5814 5812 5810 5808 5805 5803 5800 5797 5794 5792 5789 5786 5784 5782 5779 5777 5775 5773 5771 5769 5768 5767 5765
5819 5820 5821 5821 5821 5821 5822 5823 5821 5820 5820 5820 5819 5819 5818 5816 5815 5814 5812 5810 5809 5807 5805 5803 5800 5797 5794 5791 5788 5785 5782 5779 5776 5774 5771 5769 5767 5765 5763 5761 5759 5758 5757 5755
5814 5815 5817 5815 5815 5816 5817 5815 5815 5815 5814 5814 5813 5812 5811 5810 5808 5807 5805 5803 5801 5799 5796 5794 5791 5788 5785 5782 5779 5775 5771 5768 5765 5762 5759 5757 5754 5752 5750 5748 5747 5745 5744 5744
5810 5811 5810 5809 5809 5809 5809 5809 5809 5808 5808 5807 5806 5805 5804 5802 5800 5799 5797 5794 5792 5789 5787 5784 5781 5778 5774 5771 5767 5763 5759 5755 5752 5748 5745 5742 5740 5737 5735 5733 5732 5731 5730 5730
5802 5802 5801 5801 5801 5802 5802 5802 5801 5801 5800 5799 5798 5797 5795 5794 5792 5789 5787 5785 5782 5779 5776 5773 5770 5766 5762 5758 5754 5750 5745 5741 5737 5733 5729 5726 5723 5721 5718 5716 5714 5713 5713 5713
5793 5793 5793 5793 5793 5793 5793 5793 5793 5792 5791 5790 5789 5787 5786 5784 5781 5779 5776 5774 5771 5768 5765 5761 5757 5753 5749 5744 5740 5735 5730 5725 5721 5717 5713 5709 5705 5702 5699 5697 5695 5694 5694 5694
5784 5784 5784 5785 5784 5784 5784 5783 5783 5782 5781 5780 5779 5777 5775 5773 5771 5768 5765 5762 5759 5755 5752 5748 5744 5739 5734 5730 5725 5719 5714 5709 5704 5699 5695 5690 5686 5683 5680 5677 5675 5673 5673 5673
5773 5773 5774 5774 5774 5774 5773 5773 5772 5771 5770 5769 5767 5766 5764 5761 5759 5756 5753 5749 5746 5742 5738 5734 5729 5724 5719 5714 5709 5703 5698 5692 5687 5682 5676 5672 5667 5663 5660 5657 5654 5652 5651 5652
5761 5762 5762 5763 5763 5763 5762 5761 5761 5760 5758 5757 5755 5753 5751 5749 5746 5743 5739 5736 5732 5728 5723 5719 5714 5709 5703 5698 5692 5686 5680 5675 5669 5663 5658 5653 5648 5643 5639 5636 5634 5632 5631 5631
5749 5750 5751 5751 5751 5750 5750 5749 5748 5747 5746 5744 5743 5740 5738 5735 5732 5729 5725 5721 5717 5713 5708 5703 5697 5692 5686 5680 5674 5668 5662 5656 5650 5644 5639 5633 5628 5623 5619 5615 5613 5612 5612 5612
5737 5737 5738 5738 5738 5737 5737 5736 5735 5734 5733 5731 5729 5727 5724 5721 5718 5714 5710 5706 5701 5697 5691 5686 5681 5675 5669 5662 5656 5650 5644 5638 5631 5625 5619 5613 5608 5603 5599 5595 5593 5591 5591 5591
5723 5724 5724 5724 5724 5723 5723 5723 5722 5720 5719 5717 5714 5712 5709 5706 5702 5698 5694 5690 5685 5680 5674 5669 5663 5657 5650 5644 5637 5631 5625 5619 5612 5606 5600 5594 5588 5584 5579 5576 5573 5572 5571 5571
5709 5710 5710 5711 5710 5710 5709 5708 5707 5706 5704 5702 5699 5696 5693 5690 5686 5682 5677 5673 5667 5662 5656 5650 5644 5638 5632 5625 5618 5612 5606 5600 5594 5587 5581 5575 5570 5565 5560 5557 5554 5553 5552 5552
5694 5695 5695 5695 5695 5695 5694 5693 5692 5690 5688 5685 5683 5680 5676 5673 5669 5664 5660 5655 5650 5644 5638 5632 5626 5619 5613 5606 5599 5593 5587 5581 5574 5568 5562 5557 5551 5546 5542 5538 5535 5533 5532 5532
5679 5679 5680 5680 5680 5679 5678 5677 5675 5673 5671 5668 5666 5662 5659 5655 5651 5646 5642 5637 5631 5625 5620 5613 5607 5600 5594 5587 5580 5574 5568 5561 5555 5549 5543 5538 5533 5528 5524 5520 5517 5514 5513 5513
5662 5663 5663 5663 5663 5662 5661 5660 5658 5656 5654 5651 5648 5645 5641 5637 5632 5628 5623 5618 5613 5606 5600 5594 5588 5582 5575 5568 5562 5555 5549 5542 5536 5530 5525 5519 5515 5510 5506 5503 5499 5497 5495 5495
5645 5645 5645 5645 5645 5644 5643 5641 5639 5637 5635 5632 5629 5626 5622 5618 5614 5609 5604 5599 5594 5587 5581 5576 5569 5563 5556 5549 5543 5537 5531 5525 5518 5513 5508 5503 5498 5494 5490 5487 5483 5481 5479 5478
5628 5628 5628 5627 5627 5626 5624 5623 5621 5618 5616 5613 5610 5607 5603 5599 5594 5590 5586 5580 5574 5569 5563 5557 5551 5545 5538 5531 5526 5520 5514 5508 5502 5497 5492 5487 5483 5478 5474 5471 5468 5465 5463 5462
5610 5610 5610 5609 5608 5607 5606 5604 5602 5599 5597 5594 5591 5587 5583 5579 5575 5570 5565 5561 5556 5550 5545 5540 5534 5527 5521 5515 5509 5503 5498 5492 5487 5482 5477 5472 5467 5463 5459 5455 5452 5450 5447 5447
5591 5591 5591 5590 5589 5587 5586 5584 5582 5580 5577 5574 5571 5567 5563 5559 5555 5551 5546 5542 5537 5532 5527 5522 5517 5511 5504 5499 5493 5488 5482 5477 5472 5467 5462 5457 5453 5448 5444 5440 5437 5434 5432 5431
5570 5570 5570 5570 5568 5567 5565 5563 5562 5559 5556 5554 5551 5547 5543 5540 5536 5532 5528 5524 5520 5515 5510 5505 5500 5495 5489 5483 5478 5472 5467 5462 5457 5452 5447 5443 5438 5434 5430 5426 5423 5420 5419 5418
5550 5550 5549 5549 5548 5546 5544 5543 5541 5539 5536 5534 5531 5528 5525 5522 5518 5515 5511 5507 5503 5498 5494 5489 5484 5479 5474 5468 5463 5458 5453 5448 5443 5438 5433 5429 5424 5419 5416 5413 5410 5408 5406 5405